Regional Weather Roundup
Issued by NWS State College, PA

Home | Current Version | Previous Version | Text Only | Print | Product List | Glossary On
Versions: 1 2 3 4 5 6 7 8 9 10 11 12 13 14 15 16 17 18 19 20 21 22 23 24 25 26 27 28 29 30 31 32 33 34 35 36 37 38 39 40 41 42 43 44 45 46 47 48 49 50
000
ASUS41 KCTP 291603
RWRCTP

REGIONAL WEATHER ROUNDUP
NATIONAL WEATHER SERVICE STATE COLLEGE PA
1200 PM EDT SAT AUG 29 2015

Note: "fair" indicates few or no clouds below 12,000 feet with no
significant weather and/or obstructions to visibility.

* = STATION THAT DOES NOT REPORT PRECIPITATION /E.G. RAIN...SNOW...ETC/
    THUNDER OR FOG.

PAZ002>004-007>009-013>016-020>023-029>032-291700-
WESTERN PENNSYLVANIA

CITY           SKY/WX    TMP DP  RH WIND       PRES   REMARKS
ERIE           PTSUNNY   76  58  53 NW5       30.18R
MEADVILLE      MOSUNNY   74  56  53 VRB6      30.21S
FRANKLIN*      MOSUNNY   73  57  56 SW3       30.23S
NEW CASTLE     FAIR      78  63  60 CALM      30.20F
BEAVER COUNTY  CLOUDY    77  59  53 S5        30.21S
BUTLER*        SUNNY     79  59  50 W5        30.23S
PITTSBURGH INT PTSUNNY   79  58  48 CALM      30.20F
PITTSBURGH     SUNNY     78  54  43 VRB5      30.20F
INDIANA*       SUNNY     77  59  53 W10G16    30.25F
LATROBE        MOSUNNY   79  59  50 W8        30.22F
WASHINGTON CO* SUNNY     81  61  50 SW7       30.21F
$$

PAZ004>006-010>012-017>019-024>028-033>037-041-042-045-046-049>053-291700-
CENTRAL PENNSYLVANIA

CITY           SKY/WX    TMP DP  RH WIND       PRES   REMARKS
BRADFORD       MOSUNNY   73  52  47 NW7       30.23S
DUBOIS         SUNNY     77  52  41 W8        30.23S
CLEARFIELD     SUNNY     73  59  61 VRB3      30.23S
JOHNSTOWN      SUNNY     74  56  53 W9        30.25F
ALTOONA        SUNNY     78  58  49 VRB3      30.23S
STATE COLLEGE  SUNNY     72  63  73 CALM      30.22F
WILLIAMSPORT   MOSUNNY   74  60  61 CALM      30.18F
SELINSGROVE    MOSUNNY   78  63  59 VRB5      30.19F
FT INDIANTOWN  SUNNY     77  62  60 SW6       30.20F
CAPITAL CITY   SUNNY     78  62  57 CALM      30.19F
HARRISBURG     MOSUNNY   80  62  54 CALM      30.19F
YORK           MOSUNNY   78  64  61 SW7       30.20F
$$

PAZ038>040-043-044-047-048-054-055-060>062-067>071-291700-
EASTERN PENNSYLVANIA

CITY           SKY/WX    TMP DP  RH WIND       PRES   REMARKS
SCRANTON       SUNNY     79  60  52 W7        30.20F
MOUNT POCONO   PTSUNNY   73  58  59 SW9       30.26S
ALLENTOWN      SUNNY     80  60  50 VRB7      30.21F
QUAKERTOWN*    SUNNY     79  59  50 S7        30.22F
READING        SUNNY     81  60  48 S10       30.19F
LANCASTER      MOSUNNY   79  62  56 S10       30.20F
COATESVILLE    MOSUNNY   77  61  57 SW6       30.23F
POTTSTOWN      SUNNY     80  60  50 S8        30.23F
BLUE BELL      SUNNY     81  61  50 SW3       30.21F
DOYLESTOWN     SUNNY     79  59  50 SW8       30.21F
WILLOW GROVE   NOT AVBL
NORTH PHILA    SUNNY     83  56  39 W7        30.21F
PHILADELPHIA   MOSUNNY   82  57  42 SW8       30.21F
$$



USA.gov is the U.S. government's official web portal to all federal, state and local government web resources and services.